User: anonymous   Login
Location: Unspecified
(0.0000°N, 0.0000°E)
Time: 07:17:04
(UTC+00:00)
Language:

Feng Yun - Orbit

View from above orbital plane
View from above orbital plane
View from above satellite
View from above satellite

Ground track
Ground track

The orbit data is extracted from the following two-line orbital elements,

1 24834U 97029A   17178.38232031 -.00000236 +00000-0 +00000-0 0  9996
2 24834 013.7101 030.8043 0100340 158.6677 057.0452 00.96051699071929
Epoch (UTC): 27 June 2017 09:10:32
Eccentricity: 0.0100340
inclination: 13.7101°
perigee height: 36577 km
apogee height: 37448 km
right ascension of ascending node: 30.8043°
argument of perigee: 158.6677°
revolutions per day: 0.96051699
mean anomaly at epoch: 57.0452°
orbit number at epoch: 7192

The dashed part of the orbit path shows where the satellite is in the earth's shadow,  

DLR